Time,TemperatureF,DewpointF,PressureIn,WindDirection,WindDirectionDegrees,WindSpeedMPH,WindSpeedGustMPH,Humidity,HourlyPrecipIn,Conditions,Clouds,dailyrainin,SoftwareType,DateUTC
2013-06-07 00:12:00,55.7,55.0,30.00,West,276,0.0,1.0,98,0.11,,,0.02,weatherlink.com 1.10,2013-06-07 04:12:00,
2013-06-07 00:27:00,55.7,55.0,29.99,West,276,0.0,0.0,98,0.08,,,0.03,weatherlink.com 1.10,2013-06-07 04:27:00,
2013-06-07 00:42:00,55.6,55.0,29.99,West,276,0.0,0.0,99,0.05,,,0.03,weatherlink.com 1.10,2013-06-07 04:42:00,
2013-06-07 00:57:00,55.6,55.0,29.98,West,276,0.0,0.0,99,0.04,,,0.04,weatherlink.com 1.10,2013-06-07 04:57:00,
2013-06-07 01:12:00,55.7,56.0,29.98,West,276,0.0,0.0,99,0.02,,,0.04,weatherlink.com 1.10,2013-06-07 05:12:00,
2013-06-07 01:27:00,55.9,56.0,29.97,West,276,0.0,1.0,99,0.01,,,0.04,weatherlink.com 1.10,2013-06-07 05:27:00,
2013-06-07 01:42:00,55.8,56.0,29.97,West,276,0.0,0.0,99,0.01,,,0.04,weatherlink.com 1.10,2013-06-07 05:42:00,
2013-06-07 01:57:00,55.7,56.0,29.97,West,276,0.0,0.0,99,0.00,,,0.04,weatherlink.com 1.10,2013-06-07 05:57:00,
2013-06-07 02:12:00,55.6,55.0,29.95,ENE,60,0.0,1.0,99,0.00,,,0.04,weatherlink.com 1.10,2013-06-07 06:12:00,
2013-06-07 02:27:00,55.5,55.0,29.95,ENE,65,0.0,0.0,99,0.00,,,0.04,weatherlink.com 1.10,2013-06-07 06:27:00,
2013-06-07 02:42:00,55.6,55.0,29.95,East,84,0.0,0.0,99,0.00,,,0.04,weatherlink.com 1.10,2013-06-07 06:42:00,
2013-06-07 02:57:00,55.7,56.0,29.95,East,80,0.0,0.0,99,0.01,,,0.05,weatherlink.com 1.10,2013-06-07 06:57:00,
2013-06-07 03:12:00,55.7,56.0,29.94,ENE,58,0.0,0.0,99,0.02,,,0.06,weatherlink.com 1.10,2013-06-07 07:12:00,
2013-06-07 03:27:00,55.7,56.0,29.94,ENE,60,0.0,0.0,99,0.03,,,0.07,weatherlink.com 1.10,2013-06-07 07:27:00,
2013-06-07 03:42:00,55.6,55.0,29.94,ENE,77,0.0,2.0,99,0.04,,,0.08,weatherlink.com 1.10,2013-06-07 07:42:00,
2013-06-07 03:57:00,55.5,55.0,29.94,North,356,0.0,1.0,99,0.03,,,0.08,weatherlink.com 1.10,2013-06-07 07:57:00,
2013-06-07 04:12:00,55.4,55.0,29.93,ESE,120,0.0,0.0,99,0.02,,,0.08,weatherlink.com 1.10,2013-06-07 08:12:00,
2013-06-07 04:27:00,55.4,55.0,29.93,ESE,109,0.0,1.0,99,0.01,,,0.08,weatherlink.com 1.10,2013-06-07 08:27:00,
2013-06-07 04:42:00,55.4,55.0,29.93,West,269,0.0,0.0,99,0.00,,,0.08,weatherlink.com 1.10,2013-06-07 08:42:00,
2013-06-07 04:57:00,55.3,55.0,29.93,ESE,103,0.0,1.0,99,0.01,,,0.09,weatherlink.com 1.10,2013-06-07 08:57:00,
2013-06-07 05:12:00,55.2,55.0,29.93,ENE,74,0.0,0.0,99,0.01,,,0.09,weatherlink.com 1.10,2013-06-07 09:12:00,
2013-06-07 05:27:00,55.1,55.0,29.93,ENE,74,0.0,0.0,99,0.01,,,0.09,weatherlink.com 1.10,2013-06-07 09:27:00,
2013-06-07 05:43:00,55.1,55.0,29.94,ENE,74,0.0,0.0,99,0.01,,,0.09,weatherlink.com 1.10,2013-06-07 09:43:00,
2013-06-07 05:58:00,55.0,55.0,29.94,ENE,72,0.0,0.0,99,0.00,,,0.09,weatherlink.com 1.10,2013-06-07 09:58:00,
2013-06-07 06:13:00,55.0,55.0,29.94,ENE,72,0.0,0.0,99,0.01,,,0.10,weatherlink.com 1.10,2013-06-07 10:13:00,
2013-06-07 06:28:00,55.0,55.0,29.94,ENE,72,0.0,0.0,99,0.02,,,0.11,weatherlink.com 1.10,2013-06-07 10:28:00,
2013-06-07 06:43:00,55.2,55.0,29.93,ENE,72,0.0,0.0,99,0.03,,,0.12,weatherlink.com 1.10,2013-06-07 10:43:00,
2013-06-07 06:58:00,55.4,55.0,29.94,ENE,72,0.0,0.0,99,0.03,,,0.12,weatherlink.com 1.10,2013-06-07 10:58:00,
2013-06-07 07:13:00,55.5,55.0,29.94,North,4,0.0,0.0,99,0.02,,,0.12,weatherlink.com 1.10,2013-06-07 11:13:00,
2013-06-07 07:28:00,55.7,56.0,29.94,North,5,0.0,0.0,99,0.02,,,0.13,weatherlink.com 1.10,2013-06-07 11:28:00,
2013-06-07 07:43:00,55.6,55.0,29.94,North,5,0.0,0.0,99,0.05,,,0.17,weatherlink.com 1.10,2013-06-07 11:43:00,
2013-06-07 07:58:00,55.2,55.0,29.95,NNE,12,0.0,0.0,99,0.07,,,0.19,weatherlink.com 1.10,2013-06-07 11:58:00,
2013-06-07 08:13:00,55.1,55.0,29.95,NNE,12,0.0,0.0,99,0.10,,,0.22,weatherlink.com 1.10,2013-06-07 12:13:00,
2013-06-07 08:28:00,55.3,55.0,29.95,North,11,0.0,0.0,99,0.11,,,0.25,weatherlink.com 1.10,2013-06-07 12:28:00,
2013-06-07 08:43:00,55.4,55.0,29.95,WNW,287,0.0,0.0,99,0.08,,,0.25,weatherlink.com 1.10,2013-06-07 12:43:00,
2013-06-07 08:58:00,55.6,55.0,29.95,WNW,286,0.0,0.0,99,0.06,,,0.25,weatherlink.com 1.10,2013-06-07 12:58:00,
2013-06-07 09:13:00,55.8,56.0,29.95,WNW,286,0.0,0.0,100,0.03,,,0.25,weatherlink.com 1.10,2013-06-07 13:13:00,
2013-06-07 09:28:00,56.2,56.0,29.95,NE,37,0.0,0.0,100,0.01,,,0.26,weatherlink.com 1.10,2013-06-07 13:28:00,
2013-06-07 09:43:00,56.1,56.0,29.94,NW,313,0.0,0.0,99,0.03,,,0.28,weatherlink.com 1.10,2013-06-07 13:43:00,
2013-06-07 09:58:00,56.2,56.0,29.95,NW,313,0.0,0.0,99,0.04,,,0.29,weatherlink.com 1.10,2013-06-07 13:58:00,
2013-06-07 10:13:00,56.4,56.0,29.94,NW,315,0.0,0.0,99,0.04,,,0.29,weatherlink.com 1.10,2013-06-07 14:13:00,
2013-06-07 10:28:00,56.6,56.0,29.94,NW,314,0.0,0.0,99,0.03,,,0.29,weatherlink.com 1.10,2013-06-07 14:28:00,
2013-06-07 10:43:00,56.6,56.0,29.94,NW,313,0.0,0.0,99,0.01,,,0.29,weatherlink.com 1.10,2013-06-07 14:43:00,
2013-06-07 10:58:00,56.6,56.0,29.94,NW,314,0.0,0.0,99,0.00,,,0.29,weatherlink.com 1.10,2013-06-07 14:58:00,
2013-06-07 11:13:00,56.5,56.0,29.94,NW,316,0.0,0.0,99,0.00,,,0.29,weatherlink.com 1.10,2013-06-07 15:13:00,
2013-06-07 11:28:00,56.4,56.0,29.94,NW,316,0.0,0.0,99,0.01,,,0.30,weatherlink.com 1.10,2013-06-07 15:28:00,
2013-06-07 11:43:00,56.2,56.0,29.94,North,3,0.0,0.0,99,0.01,,,0.30,weatherlink.com 1.10,2013-06-07 15:43:00,
2013-06-07 11:58:00,56.1,56.0,29.94,North,10,0.0,0.0,99,0.01,,,0.30,weatherlink.com 1.10,2013-06-07 15:58:00,
2013-06-07 12:13:00,56.3,56.0,29.94,WNW,302,0.0,0.0,99,0.04,,,0.33,weatherlink.com 1.10,2013-06-07 16:13:00,
2013-06-07 12:28:00,56.6,56.0,29.94,NW,308,0.0,0.0,99,0.08,,,0.38,weatherlink.com 1.10,2013-06-07 16:28:00,
2013-06-07 12:43:00,56.7,57.0,29.94,NW,306,0.0,0.0,99,0.10,,,0.40,weatherlink.com 1.10,2013-06-07 16:43:00,
2013-06-07 12:58:00,56.9,57.0,29.93,NW,307,0.0,0.0,99,0.12,,,0.42,weatherlink.com 1.10,2013-06-07 16:58:00,
2013-06-07 13:13:00,56.8,57.0,29.92,NW,309,0.0,0.0,99,0.10,,,0.43,weatherlink.com 1.10,2013-06-07 17:13:00,
2013-06-07 13:28:00,56.6,56.0,29.92,NW,311,0.0,0.0,98,0.05,,,0.43,weatherlink.com 1.10,2013-06-07 17:28:00,
2013-06-07 13:43:00,56.6,56.0,29.92,WNW,293,0.0,0.0,99,0.03,,,0.44,weatherlink.com 1.10,2013-06-07 17:43:00,
2013-06-07 13:58:00,57.0,57.0,29.91,WNW,295,0.0,0.0,99,0.04,,,0.46,weatherlink.com 1.10,2013-06-07 17:58:00,
2013-06-07 14:13:00,57.0,57.0,29.91,WNW,297,0.0,0.0,99,0.04,,,0.47,weatherlink.com 1.10,2013-06-07 18:13:00,
2013-06-07 14:43:00,57.0,57.0,29.90,West,269,0.0,0.0,99,0.08,,,0.52,weatherlink.com 1.10,2013-06-07 18:43:00,
2013-06-07 14:58:00,57.1,57.0,29.90,West,269,0.0,0.0,99,0.09,,,0.55,weatherlink.com 1.10,2013-06-07 18:58:00,
2013-06-07 15:13:00,57.1,57.0,29.89,West,267,0.0,0.0,99,0.11,,,0.58,weatherlink.com 1.10,2013-06-07 19:13:00,
2013-06-07 15:28:00,57.2,57.0,29.89,NW,314,0.0,0.0,99,0.10,,,0.59,weatherlink.com 1.10,2013-06-07 19:28:00,
2013-06-07 15:43:00,57.3,57.0,29.89,NNW,345,0.0,0.0,99,0.09,,,0.61,weatherlink.com 1.10,2013-06-07 19:43:00,
2013-06-07 15:58:00,57.2,57.0,29.88,NNW,345,0.0,0.0,99,0.08,,,0.63,weatherlink.com 1.10,2013-06-07 19:58:00,
2013-06-07 16:13:00,57.1,57.0,29.87,WNW,285,0.0,0.0,99,0.07,,,0.65,weatherlink.com 1.10,2013-06-07 20:13:00,
2013-06-07 16:29:00,57.2,57.0,29.87,SW,222,0.0,1.0,99,0.08,,,0.67,weatherlink.com 1.10,2013-06-07 20:29:00,
2013-06-07 16:43:00,57.2,57.0,29.87,NW,323,0.0,0.0,99,0.08,,,0.69,weatherlink.com 1.10,2013-06-07 20:43:00,
2013-06-07 16:58:00,57.2,57.0,29.86,WNW,294,0.0,0.0,99,0.07,,,0.70,weatherlink.com 1.10,2013-06-07 20:58:00,
2013-06-07 17:13:00,57.2,57.0,29.86,WNW,293,0.0,0.0,99,0.06,,,0.71,weatherlink.com 1.10,2013-06-07 21:13:00,
2013-06-07 19:11:00,56.6,56.0,29.83,SSW,212,0.0,0.0,99,0.02,,,0.76,weatherlink.com 1.10,2013-06-07 23:11:00,
2013-06-07 19:28:00,56.3,56.0,29.82,ENE,72,0.0,1.0,99,0.02,,,0.77,weatherlink.com 1.10,2013-06-07 23:28:00,
2013-06-07 19:59:00,56.0,56.0,29.82,ENE,65,0.0,0.0,99,0.02,,,0.77,weatherlink.com 1.10,2013-06-07 23:59:00,
2013-06-07 20:29:00,55.9,56.0,29.82,ENE,57,0.0,0.0,100,0.01,,,0.78,weatherlink.com 1.10,2013-06-08 00:29:00,
2013-06-07 20:44:00,55.9,56.0,29.82,ENE,58,0.0,0.0,100,0.01,,,0.78,weatherlink.com 1.10,2013-06-08 00:44:00,
2013-06-07 20:59:00,55.8,56.0,29.82,NE,53,0.0,1.0,100,0.02,,,0.79,weatherlink.com 1.10,2013-06-08 00:59:00,
2013-06-07 21:14:00,55.7,56.0,29.82,ENE,69,0.0,1.0,100,0.02,,,0.79,weatherlink.com 1.10,2013-06-08 01:14:00,
2013-06-07 21:29:00,55.7,56.0,29.82,North,353,0.0,1.0,100,0.02,,,0.80,weatherlink.com 1.10,2013-06-08 01:29:00,
2013-06-07 21:44:00,55.7,56.0,29.82,North,9,0.0,0.0,100,0.03,,,0.81,weatherlink.com 1.10,2013-06-08 01:44:00,
2013-06-07 21:59:00,55.6,56.0,29.82,NNW,335,0.0,0.0,100,0.03,,,0.82,weatherlink.com 1.10,2013-06-08 01:59:00,
2013-06-07 22:14:00,55.5,56.0,29.82,NNE,18,0.0,0.0,100,0.02,,,0.82,weatherlink.com 1.10,2013-06-08 02:14:00,
2013-06-07 22:29:00,55.3,55.0,29.81,SW,222,0.0,1.0,100,0.03,,,0.83,weatherlink.com 1.10,2013-06-08 02:29:00,
2013-06-07 22:44:00,55.1,55.0,29.80,NE,54,0.0,1.0,100,0.03,,,0.84,weatherlink.com 1.10,2013-06-08 02:44:00,
2013-06-07 22:59:00,54.9,55.0,29.80,ENE,75,0.0,0.0,100,0.02,,,0.84,weatherlink.com 1.10,2013-06-08 02:59:00,
2013-06-07 23:14:00,55.0,55.0,29.80,ENE,75,0.0,0.0,100,0.03,,,0.85,weatherlink.com 1.10,2013-06-08 03:14:00,
2013-06-07 23:29:00,54.9,55.0,29.80,ENE,60,0.0,0.0,100,0.06,,,0.89,weatherlink.com 1.10,2013-06-08 03:29:00,
2013-06-07 23:44:00,54.7,55.0,29.79,West,277,0.0,1.0,100,0.07,,,0.91,weatherlink.com 1.10,2013-06-08 03:44:00,
2013-06-07 23:59:00,54.4,54.0,29.78,ENE,65,1.0,2.0,100,0.10,,,0.00,weatherlink.com 1.10,2013-06-08 03:59:00,